Home > Weather > Klagenfurt > Past weeks

Flag for Austria Weather for the Past 2 Weeks in Klagenfurt, Carinthia, Austria

Now
39 °F

Passing clouds.


Feels Like: 37 °F
Forecast: 31 / 59 °F
Wind: 3 mph from Northwest

Location: Klagenfurt-Flughafen

Current Time: Apr 29, 2016 at 10:33:56 PM

Latest Report: Apr 29, 2016 at 9:50 PM


Visibility: N/A

Pressure: 30.12 "Hg

Humidity: 81%

Dew Point: 34 °F

Location of KlagenfurtLocation

Historic Weather in Klagenfurt — Graph

°F

Klagenfurt Temperature Yesterday

Maximum temperature yesterday: 43 °F (at 2:50 PM)
Minimum temperature yesterday: 30 °F (at 12:50 AM)
Average temperature yesterday: 36 °F

High & Low Weather Summary for the Past Weeks

 TemperatureHumidityPressure
High73 °F (Apr 22, 3:20 PM)100% (Apr 23, 4:50 AM)30.33 "Hg (Apr 23, 4:50 AM)
Low28 °F (Apr 26, 3:20 AM)19% (Apr 25, 4:50 PM)29.59 "Hg (Apr 23, 3:20 PM)
Average50 °F66%29.93 "Hg
* Reported Apr 14 9:20 PM — Apr 29 9:20 PM, Klagenfurt, Weather by CustomWeather, © 2016

Note: Actual official high and low records may vary slightly from our data, if they occured in-between our weather recording intervals... More about our weather records

Advertising

Klagenfurt Weather History for the Previous 24 Hours

Scroll right to see more
 ConditionsComfort  
Time TempWeatherWind HumidityBarometerVisibility
9:20 PM
Fri, Apr 29
41 °FClear.5 mph76%30.12 "Hg10 mi
8:50 PM43 °FSunny.3 mph76%30.12 "Hg10 mi
8:20 PM45 °FPassing clouds.3 mph71%30.12 "HgN/A
7:50 PM48 °FSunny.1 mph54%30.09 "Hg10 mi
7:20 PM52 °FPassing clouds.2 mph47%30.09 "HgN/A
6:50 PM52 °FPassing clouds.1 mph44%30.09 "HgN/A
6:20 PM52 °FPassing clouds.2 mph44%30.09 "HgN/A
5:50 PM52 °FPassing clouds.2 mph47%30.12 "HgN/A
5:20 PM52 °FPassing clouds.3 mph47%30.12 "HgN/A
4:50 PM52 °FPassing clouds.2 mph47%30.12 "HgN/A
4:20 PM50 °FPassing clouds.2 mph54%30.12 "HgN/A
3:50 PM50 °FPassing clouds.2 mph50%30.15 "HgN/A
3:20 PM46 °FPassing clouds.1 mph57%30.15 "HgN/A
2:50 PM46 °FPassing clouds.1 mph53%30.15 "HgN/A
2:20 PM45 °FPassing clouds.1 mph61%30.15 "HgN/A
1:50 PM45 °FPassing clouds.2 mph66%30.15 "HgN/A
1:20 PM43 °FPassing clouds.2 mph66%30.18 "HgN/A
12:50 PM41 °FScattered clouds.2 mph70%30.18 "HgN/A
12:20 PM41 °FPartly sunny.2 mph70%30.18 "HgN/A
11:50 AM39 °FPartly sunny.2 mph75%30.18 "HgN/A
11:20 AM39 °FPartly sunny.3 mph75%30.18 "HgN/A
10:50 AM39 °FPartly sunny.3 mph75%30.21 "HgN/A
10:20 AM37 °FPartly sunny.5 mph81%30.18 "HgN/A
9:50 AM37 °FPartly sunny.3 mph87%30.18 "HgN/A
9:20 AM36 °FPartly sunny.2 mph87%30.18 "HgN/A
8:50 AM36 °FBroken clouds.2 mph87%30.18 "HgN/A
8:20 AM34 °FMore clouds than sun.3 mph93%30.18 "Hg4 mi
7:50 AM34 °FFog.3 mph93%30.18 "Hg3 mi
7:20 AM34 °FFog.3 mph93%30.18 "Hg3 mi
6:50 AM32 °FIce fog.5 mph100%30.15 "Hg3 mi
6:20 AM32 °FSleet. Ice fog.3 mph100%30.15 "Hg3 mi
5:50 AM32 °FSleet. Overcast.3 mph100%30.15 "Hg2 mi
5:20 AM32 °FSleet. Ice fog.3 mph100%30.15 "Hg4 mi
4:50 AM32 °FSnow. Overcast.1 mph100%30.15 "Hg2 mi
4:20 AM32 °FSleet. Overcast.3 mph100%30.15 "Hg1 mi
3:50 AM32 °FIce fog.5 mph100%30.15 "Hg1 mi
2:50 AM32 °FPassing clouds.3 mph100%30.12 "Hg1 mi
2:20 AM32 °FPassing clouds.3 mph100%30.12 "Hg1 mi
1:50 AM32 °FChilly.3 mph100%30.12 "Hg1 mi
12:50 AM30 °FIce fog.5 mph100%30.12 "Hg1 mi
12:20 AM30 °FIce fog.6 mph100%30.12 "Hg0 mi
11:50 PM
Thu, Apr 28
32 °FPassing clouds.6 mph100%30.12 "Hg1 mi
11:20 PM32 °FFog.3 mph100%30.12 "Hg4 mi
10:50 PM34 °FFog.5 mph93%30.09 "Hg4 mi
10:20 PM34 °FFog.5 mph100%30.09 "Hg5 mi
Weather by CustomWeather, © 2016

See weather overviewHow to use our weather pages